Погода в Каунасе

Погода в Каунасе : погода сейчас, прогноз погоды и архив. Всё, что Вы хотите узнать о погоде в Каунасе!

Поиск расширенной информации на нашем сайте:

Другие новости

Новости СМИ2

Главная страница сайта

Новости сайта

03.07.2017

Напоминаем, что на нашем специализированном сайте Метеоцентр.Азия вы можете получить высокодетализированные автоматические прогнозы погоды по пунктам России, СНГ и мира в авиационном формате (включающие направление и скорость ветра, видимость, явления погоды, количество и форму облачности, нижнюю и верхнюю границу облачности).

Рекомендуем: застройщик продает. квартиры в Новостройках от застройщика в Новосибирске. новостройки дешево

Погода в Каунасе - сегодня

Время (UTC), дата Ветер
(°,м/с) 
Видим.   Явления Облачность Т
(°С)
Тd
(°С)
f(%) Тe
(°С)
Pmin
(гПа)
dP
(гПа)
Po
(мм)
O2
(г/м3)
Тmin Tmax R s Состояние
почвы
21 19.11.17 190 (Ю) 6-8{08}  16000 м  в посл. час дождь  10/10 330 м 
[Sc]
+3 +2.2 94 1000.8  0.5  743  296           
00 20.11.17 190 (Ю) 5-7{08}  14000 м  в посл. час дождь  10/10 330 м 
[Sc]
+3 +2.5 97 +1  1000.8  743  296      0.0     
03 20.11.17 190 (Ю) 5-7{07}  13000 м  {дождь}  10/10 630 м 
[Sc]
+2.7 +2.2 96 1001.4  0.6  744  296           
06 20.11.17 190 (Ю) 4-5{07}  14000 м  в посл. час дождь  10/10 240 м 
[Sc]
+2.6 +2.3 98 +1  1002.6  1.2  745  297  +2.6    0.6    влажная 
09 20.11.17 220 (ЮЗ) 3-4{05}  12000 м    10/10 600 м 
[Sc]
+3 +2.2 94 +2  1004  1.4  746  297           
12 20.11.17 220 (ЮЗ) 3-5{07}  20000 м    9/8 1230 м средняя 
[Sc|Ac trans]
+3.8 +0.7 80 +3  1004.3  0.3  746  296           
15 20.11.17 190 (Ю) 4-6{06}  20000 м    10/10 870 м 
[Sc]
+2.8 +0.7 86 +1  1005  0.7  747  298           
18 20.11.17 160 (Ю) 3-5{06}  5000 м  слаб. снег{дождь}  10/10 120 м 
[Frnb|Ns]
+0.7 +0.7 100 -1  1005.7  0.6  747  300    +4.6  0.0     
21 20.11.17 тихо () -3{05}  4000 м  дымка{снег, дождь}  10/10 120 м 
[St]
+0.9 +0.9 100 +1  1006.7  748  300           
00 21.11.17 010 (С) 3-4{04}  12000 м  {снег, дождь}  10/10 360 м 
[Sc]
+1.6 +1.3 98 1007.9  1.2  749  300      0.5     
03 21.11.17 340 (С) 2-3{05}  10 км    10/10 600 м 
[Sc]
+1.1 +0.8 98 1009.1  1.2  750  301           
06 21.11.17 270 (З) 1-2{04}  6000 м  дымка  10/10 1110 м 
[Sc]
+1.1 +1.1 100 +2  1010  0.9  750  301  +0.5    0.5    влажная 
09 21.11.17 280 (З) 1-3{04}  20000 м    9/8 180 м средняя 
[Sc|Ac trans]
+1.8 +1.3 96 +3  1010.9  0.9  751  300           
12 21.11.17 260 (З) 4-7{07}  20000 м    9/9 210 м 
[Cu Sc]
+2.8 +1.5 91 +1  1010.8  -0.1  751  299           
15 21.11.17 280 (З) 2-4{07}  18000 м    10/10 270 м 
[Sc]
+1.6 +1.3 98 +1  1011.1  0.3  751  301           
18 21.11.17 270 (З) 2-3{05}  20000 м  в посл. час дождь  10/10 150 м 
[Sc]
+0.9 +0.6 98 1011.6  0.4  751  302    +3  0.0     
21 21.11.17 290 (З) 4-7{07}  16000 м  {дождь}  9/9 120 м 
[Sc]
+0.3 +0 98 -2  1012.1  0.5  752  303           
00 22.11.17 240 (ЮЗ) 3-4{07}  7000 м  дымка{дождь}  10/10 120 м 
[St]
+0 +0 100 -2  1013.1  753  303      0.0     
03 22.11.17 260 (З) 2-3{05}  14000 м  {снег}  10/10 180 м 
[St]
-0.4 -1 96 -1  1013.7  0.6  753  304           
06 22.11.17 тихо () -2{04}  18000 м  {снег}  10/10 270 м 
[Sc]
-0.7 -1.6 94 -1  1014.3  0.6  753  305  -0.7    0.0    влажная 
09 22.11.17 180 (Ю) 3-5{05}  20000 м    10/10 400 м 
[Sc]
+0.2 -1.5 88 -2  1015.2  0.9  754  304           
12 22.11.17 160 (Ю) 4-6{06}  19000 м    10/10 330 м 
[Sc]
+0.1 -1.4 90 -2  1015.7  0.5  755  304           
15 22.11.17 170 (Ю) 4-7{07}  19000 м    10/10 360 м 
[Sc]
-0.9 -2.4 90 -3  1016.2  0.4  755  305           
18 22.11.17 160 (Ю) 5-7{07}  15000 м    4/0 средняя, верхняя 
[Ac trans|Ci fib]
-1.1 -2 94 -4  1016.3  0.1  755  306    +0.3       
21 22.11.17 150 (ЮВ) 5-7{08}  14000 м    8/4 1500 м средняя 
[Sc|Ac trans]
-1.1 -1.7 96 -4  1016.1  -0.2  755  306           
Время (UTC), дата Ветер
(°,м/с) 
Видим.   Явления Облачность Т
(°С)
Тd
(°С)
f(%) Тe
(°С)
Pmin
(гПа)
dP
(гПа)
Po
(мм)
O2
(г/м3)
Тmin Tmax R s Состояние
почвы

Для получения пояснительной информации подведите курсор к названию столбца.

ПОГОДА в Каунасе - архив

Всё, что Вы хотите узнать о погоде в Каунасе - удобно и подробно!

Выберите нужную дату (начиная с 1 января 2015* года) и нажмите кнопку "Найти".
Будут отображены архивные сводки погоды по пункту Каунас, начиная с указанной даты.


Отображать данные в формате CSV (для использования в таблицах Excel)


Внимание! Наш архив погоды предназначен исключительно для личного некоммерческого использования в познавательных целях. Если Вам необходимы официальные справки о состоянии погоды (для производственных, юридических, коммерческих и т.п. целей), обращайтесь в органы Росгидромета.

*Примечание: данная дата относится к архиву по метеостанциям СССР (Россия, СНГ, Балтия).
Архив по метеостанциям Зарубежной Европы и Азии (кроме Китая) хранится 10 дней, по другим регионам земного шара (Китай, Африка, Америка, Австралия, Океания) - 1 день.

Каунас - район местоположения метеостанции


Название, широта, долгота, высота метеостанции:
Каунас 54.9°ш. 23.8°д. 77 м над ур. моря [Литва]

Дополнительная информация

В oтличие oт бoльшинства пoгoдных сайтoв мы публикуем пoдрoбную метеoинфoрмацию в детальнoм прoфессиoнальнoм фoрмате.

Характеристики температуры и влажнoсти вoздуха измеряются на высoте 2 м в тени вдали oт зданий и деревьев.
Скoрoсть ветра измеряется на высoте 10 м (на урoвне рoста челoвека скoрoсть ветра ниже в 1.5-2 раза). Если метеoстанция нахoдится в гoрoде или в лесу, тo скoрoсть ветра занижена на 2-4 м/с пo сравнению с oткрытым местoм. Скoрoсть ветра над акватoриями крупных рек и oзёр, а также на вершинах хoлмoв на 2-5 м/с выше, чем в oбычных услoвиях.
Атмoсфернoе давление в разных тoчках местнoсти мoжет значительнo oтличаться oт давления на метеoстанции, в зависимoсти oт услoвий рельефа (при пoдъёме на 10 м давление пoнижается примернo на 1 мм рт.ст.).